Hlavní strana
METAR-TAF:

METAR-TAF

Letiště :

Middleton Field

Evergreen, Alabama, Spojené státy americké

zeměpisná šířka: 31-25-08N, zeměpisná délka: 087-02-53W, výška: 78 m

Aktuální stav počasí

Zpráva byla vytvořena před 25 minutami, v 01:15 UTC
Jižní vítr 5 kt
Teplota 19°C
Vlhkost vzduchu 88%
Tlak 1021 hPa
Viditelnost: 16.1 km
Zataženo ve výšce 500 ft
slabý déšť

METAR: KGZH 190115Z AUTO 17005KT 10SM -RA OVC005 19/17 A3014 RMK AO2 RAB10 CIG 005V008 P0000 T01890167

Čas: 19:40 (01:40 UTC)


TAF: chybějící

Stav a předpovědi počasí z více než 4 000 letišť (zprávy METAR a TAF).

Červené a žluté tečky na mapě představují dostupné meteorologické stanice.

Když kurzor umístíte na tečku, zobrazí se název stanice.

Pak kliknutím zobrazíte stav a předpověď počasí.

Chcete-li změnit mapu, kliknutím na zelené tlačítko se znaménkem +mapu přiblížíte, kliknutím na zelené tlačítko se znaménkem – mapu oddálíte a kliknutím na zelené šipky přejdete na sousední mapy.


METAR-TAF: